Other Public Products
Issued by NWS Charleston, SC

Current Version | Previous Version | Text Only | Print | Product List | Glossary Off
Versions: 1 2 3 4 5 6 7 8 9 10 11 12 13 14 15 16 17 18 19 20 21 22 23 24 25 26 27 28 29 30 31 32 33 34 35 36 37 38 39 40 41 42 43 44 45 46 47 48 49 50

000
FPUS82 KCHS 201712
OPUCHS

TEST...KCHS/KSAV Gateway Observations...TEST
National Weather Service Charleston SC
1200 PM EST MON FEB 20 2017

NOTE: "fair" indicates few or no clouds below 12,000 feet with no
significant weather and/or obstructions to visibility.

SCZ050-WAZ558-NCZ071-TXZ119-213-PAZ071-DCZ001-FLZ074-172-MI076-
NYZ176-178-MAZ016-IL014-TNZ027-NJZ106-GAZ044-MD014-201800-
...Gateway Observations for Charleston International...

CITY           SKY/WX    TMP DP  RH WIND       PRES   REMARKS
Chas Airport   MOSUNNY   71  47  42 CALM      30.20R
Seattle        LGT RAIN  42  39  89 N16       29.47S
Charlotte      MOSUNNY   68  38  33 SE7       30.23F
Dallas DFW     CLOUDY    60  58  92 S10       29.95F
Dallas Love    CLOUDY    61  57  87 S12       29.98R
Philladelphia  MOSUNNY   54  30  40 NW10G21   30.23F
Wash National  PTSUNNY   64  37  36 NW12G22   30.24F
Baltimore      MOSUNNY   61  32  33 NW8       30.23S
Miami          PTSUNNY   77  62  59 SE10      30.12F
Detroit        PTSUNNY   51  32  48 E9        30.30S
Newark         MOSUNNY   54  24  31 VRB7G16   30.19F
Laguardia      MOSUNNY   52  26  36 NW13      30.18F
J F K          MOSUNNY   54  27  35 N10       30.19F
Boston Logan   MOSUNNY   42  21  43 NW9G17    30.15S
Ft. Lauderdale PTSUNNY   80  63  55 E14       30.11F
Chicago O`Hare CLOUDY    62  47  57 S17       30.09F
Chicago Midway CLOUDY    62  45  53 SE12      30.10F
Houston Bush   RAIN      62  60  93 N10       30.04S FOG
Houston Hobby  RAIN      62  60  93 N15       30.01F FOG
Nashville      CLOUDY    67  47  48 S7        30.17S
Atlanta        PTSUNNY   67  47  48 SE7       30.20F

$$

GAZ044-118-TXZ119-213-NCZ071-DCZ001-MDZ014-506-PAZ021-071-NJZ106-
NYZ176-178-MAZ106-OHZ011-021-055-MIZ076-KYZ091-ILZ014-INZ047-
MNZ060-201800-
...Gateway Observations for Savannah International...

CITY           SKY/WX    TMP DP  RH WIND       PRES   REMARKS
Savannah Arpt  PTSUNNY   76  45  33 E9        30.18F
Atlanta        PTSUNNY   67  47  48 SE7       30.20F
Charlotte      MOSUNNY   68  38  33 SE7       30.23F
Dallas DFW     CLOUDY    60  58  92 S10       29.95F
Houston Bush   RAIN      62  60  93 N10       30.04S FOG
Wash National  PTSUNNY   64  37  36 NW12G22   30.24F
Wash Dulles    PTSUNNY   61  36  39 N16G23    30.25S
Baltimore      MOSUNNY   61  32  33 NW8       30.23S
Philadelphia   MOSUNNY   54  30  40 NW10G21   30.23F
Newark         MOSUNNY   54  24  31 VRB7G16   30.19F
Laguardia      MOSUNNY   52  26  36 NW13      30.18F
J F K          MOSUNNY   54  27  35 N10       30.19F
Boston         MOSUNNY   42  21  43 NW9G17    30.15S
Pittsburg      PTSUNNY   50  41  71 CALM      30.27F
Akron          MOSUNNY   55  34  45 SE8       30.26F
Cleveland      PTSUNNY   57  32  38 E5        30.30F
Cincinnati     CLOUDY    56  48  74 SE9       30.21F
Columbus       FOG       45  45 100 CALM      30.27S VSB 1/4
Detroit        PTSUNNY   51  32  48 E9        30.30S
Chicago O`Hare CLOUDY    62  47  57 S17       30.09F
Minneapolis    LGT RAIN  50  46  86 SE9       29.78F FOG
Indianapolis   CLOUDY    55  46  71 SE9       30.19F

$$




USA.gov is the U.S. government's official web portal to all federal, state and local government web resources and services.